This is the latest recevied weather packets stored in our database for station/object N4QD-13. If no packets are shown the sender has not sent any weather packets the latest 10 day(s).
| Time | Temp. | Humidity | Pressure | Rain* | Wind** | Luminosity | Snow |
|---|---|---|---|---|---|---|---|
| 1777895954 | 10° C | 79% | 1016.6 hPa | 0 mm | - | 177 W/m² | - |
| 1777895651 | 8.89° C | 80% | 1016.7 hPa | 0 mm | - | 171 W/m² | - |
| 1777895348 | 8.33° C | 83% | 1017 hPa | 0 mm | - | 66 W/m² | - |
| 1777895046 | 8.33° C | 87% | 1016.9 hPa | 0 mm | - | 143 W/m² | - |
| 1777894743 | 7.78° C | 90% | 1016.9 hPa | 0 mm | - | 106 W/m² | - |
| 1777894440 | 7.22° C | 91% | 1016.9 hPa | 0 mm | - | 67 W/m² | - |
| 1777894137 | 7.22° C | 91% | 1016.9 hPa | 0 mm | - | 68 W/m² | - |
| 1777893834 | 7.22° C | 92% | 1016.9 hPa | 0 mm | - | 52 W/m² | - |
| 1777893530 | 7.22° C | 92% | 1016.7 hPa | 0 mm | - | 42 W/m² | - |
| 1777893226 | 7.22° C | 91% | 1016.9 hPa | 0 mm | - | 39 W/m² | - |
| 1777892923 | 6.67° C | 90% | 1016.8 hPa | 0 mm | - | 39 W/m² | - |
| 1777892620 | 6.67° C | 89% | 1017 hPa | 0 mm | - | 42 W/m² | - |
| 1777892315 | 6.67° C | 89% | 1016.8 hPa | 0 mm | - | 38 W/m² | - |
| 1777892012 | 6.11° C | 91% | 1016.6 hPa | 0 mm | - | 32 W/m² | - |
| 1777891710 | 6.11° C | 93% | 1016.9 hPa | 0 mm | - | 22 W/m² | - |
| 1777891406 | 6.11° C | 94% | 1016.8 hPa | 0 mm | - | 17 W/m² | - |
| 1777891101 | 6.11° C | 95% | 1016.6 hPa | 0 mm | - | 12 W/m² | - |
| 1777890796 | 6.11° C | 95% | 1016.5 hPa | 0 mm | - | 7 W/m² | - |
| 1777890493 | 5.56° C | 96% | 1016.6 hPa | 0 mm | - | 3 W/m² | - |
| 1777890188 | 5.56° C | 96% | 1016.6 hPa | 0 mm | - | 2 W/m² | - |
| 1777889885 | 5.56° C | 95% | 1016.5 hPa | 0 mm | - | 1 W/m² | - |
| 1777889583 | 5.56° C | 95% | 1016.5 hPa | 0 mm | - | 1 W/m² | - |
| 1777889280 | 5.56° C | 95% | 1016.6 hPa | 0 mm | - | 0 W/m² | - |
| 1777888977 | 5.56° C | 95% | 1016.3 hPa | 0 mm | - | 0 W/m² | - |
| 1777888675 | 5.56° C | 94% | 1016.5 hPa | 0 mm | - | 0 W/m² | - |
* Rain latest hour (hover to see other rain measurements)
** Current wind speed in m/s (hover to see current wind gust speed)